This demonstration page uses our WeatherBlox Daily Observations layout. Learn more.

Left ArrowRight Arrow

53.62937, 11.41316

Hourly Observations for April 23, 2021

Temp ( °F °C ) Dew Point ( °F °C ) Humidity (%) Winds ( mph kmh ) Pressure ( in mb ) Visibility ( mi km ) Precip ( " mm )
5:50 am 05:50 Mostly Clear 39 4 34 1 81 81 WSW 7 11 30.21 1023 7 11 N/A
6:20 am 06:20 Mostly Sunny 37 3 34 1 87 87 WSW 6 9 30.21 1023 7 11 N/A
6:50 am 06:50 Mostly Sunny 39 4 34 1 81 81 WSW 6 9 30.21 1023 7 11 N/A
7:20 am 07:20 Mostly Sunny 41 5 34 1 76 76 WSW 7 11 30.24 1024 7 11 N/A
7:50 am 07:50 Mostly Sunny 41 5 36 2 81 81 W 7 11 30.24 1024 7 11 N/A
8:20 am 08:20 Mostly Sunny 43 6 36 2 76 76 WSW 7 11 30.24 1024 30 48 N/A
8:50 am 08:50 Mostly Sunny 45 7 36 2 71 71 W 8 13 30.24 1024 30 48 N/A
9:20 am 09:20 Mostly Sunny 45 7 34 1 66 66 VRB 7 11 30.27 1025 7 11 N/A
9:50 am 09:50 Mostly Sunny 46 8 36 2 66 66 W 7 11 30.27 1025 30 48 N/A
10:20 am 10:20 Mostly Sunny 48 9 34 1 58 58 NW 13 20 30.27 1025 30 48 N/A
10:50 am 10:50 Mostly Sunny 48 9 30 -1 50 50 VRB 7 11 30.27 1025 30 48 N/A
11:20 am 11:20 Mostly Sunny 52 11 30 -1 44 44 W 8 13 30.27 1025 30 48 N/A
11:50 am 11:50 Mostly Sunny 52 11 30 -1 44 44 W 7 11 30.27 1025 7 11 N/A
12:20 pm 12:20 Mostly Sunny 52 11 28 -2 41 41 WNW 13 20 30.30 1026 7 11 N/A
12:50 pm 12:50 Mostly Sunny 52 11 27 -3 38 38 WNW 13 20 30.30 1026 7 11 N/A
1:20 pm 13:20 Mostly Sunny 54 12 25 -4 33 33 NW 13 20 30.30 1026 7 11 N/A
1:50 pm 13:50 Mostly Sunny 55 13 27 -3 33 33 WNW 10 17 30.27 1025 7 11 N/A
2:20 pm 14:20 Mostly Sunny 55 13 28 -2 36 36 VRB 8 13 30.27 1025 7 11 N/A
2:50 pm 14:50 Mostly Sunny 54 12 25 -4 33 33 W 8 13 30.27 1025 7 11 N/A
3:20 pm 15:20 Mostly Sunny 54 12 27 -3 35 35 NW 10 17 30.27 1025 7 11 N/A
3:50 pm 15:50 Mostly Sunny 54 12 28 -2 38 38 W 7 11 30.27 1025 7 11 N/A
4:20 pm 16:20 Mostly Sunny 55 13 32 0 41 41 VRB 6 9 30.27 1025 7 11 N/A
4:50 pm 16:50 Mostly Sunny 55 13 32 0 41 41 WSW 7 11 30.27 1025 7 11 N/A
5:20 pm 17:20 Mostly Sunny 55 13 32 0 41 41 W 7 11 30.27 1025 7 11 N/A
5:50 pm 17:50 Mostly Sunny 55 13 34 1 44 44 W 7 11 30.27 1025 7 11 N/A
6:20 pm 18:20 Mostly Sunny 52 11 30 -1 44 44 WSW 10 17 30.27 1025 7 11 N/A
6:50 pm 18:50 Mostly Sunny 54 12 28 -2 38 38 W 8 13 30.27 1025 7 11 N/A
7:20 pm 19:20 Mostly Sunny 52 11 28 -2 41 41 WSW 9 15 30.27 1025 7 11 N/A
7:50 pm 19:50 Mostly Sunny 50 10 28 -2 43 43 W 6 9 30.27 1025 7 11 N/A
8:20 pm 20:20 Mostly Sunny 50 10 30 -1 47 47 WSW 6 9 30.27 1025 7 11 N/A
8:50 pm 20:50 Mostly Clear 46 8 30 -1 53 53 WSW 7 11 30.30 1026 7 11 N/A
9:20 pm 21:20 Mostly Clear 46 8 32 0 57 57 WSW 6 9 30.30 1026 7 11 N/A
9:50 pm 21:50 Mostly Clear 45 7 34 1 66 66 WSW 6 9 30.30 1026 7 11 N/A

Powered by AerisWeather